This demonstration page uses our WeatherBlox Daily Observations layout. Learn more.

Left ArrowRight Arrow

Hourly Observations for September 9, 2019

Temp ( °F °C ) Dew Point ( °F °C ) Humidity (%) Winds ( mph kmh ) Pressure ( in mb ) Visibility ( mi km ) Precip ( " mm )
12:33 am 00:33 Mostly Cloudy 75 23.9 73 22.8 94 94 ENE 5 7 30.09 1019 9 14 0.00 0.00
12:59 am 00:59 Mostly Clear 74 23.3 73 22.8 97 97 E 5 7 30.09 1019 9 14 0.00 0.00
1:59 am 01:59 Mostly Cloudy 73 22.8 73 22.8 100 100 Calm 30.09 1019 8 13 0.00 0.00
2:59 am 02:59 Partly Cloudy 73 22.8 72 22.2 96 96 Calm 30.09 1019 7 11 0.00 0.00
3:51 am 03:51 Cloudy 75 23.9 73 22.8 94 94 ENE 9 15 30.09 1019 9 14 0.00 0.00
3:59 am 03:59 Cloudy 75 23.9 73 22.8 94 94 E 9 15 30.09 1019 9 14 0.00 0.00
4:59 am 04:59 Mostly Cloudy 74 23.3 72 22.2 94 94 E 7 11 30.10 1019 9 14 0.00 0.00
5:28 am 05:28 Partly Cloudy 74 23.3 72 22.2 94 94 E 6 9 30.10 1019 10 16 0.00 0.00
5:59 am 05:59 Partly Cloudy 74 23.3 72 22.2 94 94 E 5 7 30.11 1020 9 14 0.00 0.00
6:59 am 06:59 Mostly Cloudy 73 22.8 72 22.2 96 96 ESE 3 6 30.12 1020 8 13 0.00 0.00
7:59 am 07:59 Mostly Cloudy 75 23.9 73 22.8 94 94 ENE 5 7 30.15 1021 9 14 0.00 0.00
8:59 am 08:59 Mostly Cloudy 77 25 72 22.2 85 85 ENE 7 11 30.16 1021 10 16 0.00 0.00
9:59 am 09:59 Mostly Cloudy 79 26.1 72 22.2 79 79 NE 8 13 30.19 1022 10 16 0.00 0.00
10:08 am 10:08 Mostly Cloudy 78 25.6 72 22.2 82 82 ENE 8 13 30.19 1022 10 16 0.00 0.00
10:59 am 10:59 Cloudy 77 25 73 22.8 88 88 ENE 9 15 30.19 1022 10 16 0.00 0.00
11:33 am 11:33 Cloudy with Light Rain 77 25 72 22.2 85 85 ENE 9 15 30.19 1022 10 16 0.00 0.00
11:59 am 11:59 Cloudy with Light Rain 76 24.4 72 22.2 88 88 E 8 13 30.19 1022 10 16 0.00 0.00
12:59 pm 12:59 Mostly Cloudy 79 26.1 73 22.8 82 82 ENE 8 13 30.18 1022 10 16 0.00 0.00
1:19 pm 13:19 Mostly Cloudy 78 25.6 72 22.2 82 82 E 12 19 30.19 1022 10 16 0.00 0.00
1:59 pm 13:59 Cloudy 79 26.1 72 22.2 79 79 E 10 17 30.19 1022 10 16 0.00 0.00
2:34 pm 14:34 Mostly Cloudy 79 26.1 72 22.2 79 79 E 8 13 30.17 1022 10 16 0.00 0.00
2:59 pm 14:59 Mostly Cloudy 79 26.1 72 22.2 79 79 ENE 12 19 30.17 1022 10 16 0.00 0.00
3:59 pm 15:59 Mostly Cloudy 78 25.6 71 21.7 79 79 ENE 10 17 30.17 1022 10 16 0.00 0.00
4:59 pm 16:59 Mostly Cloudy 77 25 71 21.7 82 82 E 10 17 30.17 1022 10 16 0.00 0.00
5:59 pm 17:59 Mostly Cloudy 76 24.4 71 21.7 85 85 E 9 15 30.18 1022 10 16 0.00 0.00
6:59 pm 18:59 Mostly Cloudy 75 23.9 70 21.1 84 84 E 10 17 30.19 1022 10 16 0.00 0.00
7:59 pm 19:59 Mostly Cloudy 75 23.9 69 20.6 82 82 ENE 8 13 30.20 1023 10 16 0.00 0.00
8:59 pm 20:59 Mostly Cloudy 75 23.9 70 21.1 84 84 E 8 13 30.22 1023 10 16 0.00 0.00
9:59 pm 21:59 Mostly Cloudy 74 23.3 70 21.1 88 88 E 8 13 30.23 1024 10 16 0.00 0.00
10:59 pm 22:59 Mostly Cloudy 74 23.3 70 21.1 88 88 E 8 13 30.24 1024 10 16 0.00 0.00
11:59 pm 23:59 Mostly Cloudy 74 23.3 70 21.1 88 88 E 7 11 30.23 1024 10 16 0.00 0.00

Powered by AerisWeather